GW2126 Weather Reports


time (UTC)temp
C
wind
direction
speed
KPH
gust
KPH
rain 1hr
cm
rain 24hr
cm
rain mn
cm
humidity
%
barometer
mb
20260502163035 6 350 3.2 12.9 0.00 0.00 0.00 47 1017.9
20260502161530 7 331 3.2 9.7 0.00 0.00 0.00 43 1018.1
20260502151529 5 352 3.2 14.5 0.00 0.00 0.00 50 1018.2
20260502123028 3 294 1.6 6.4 0.00 0.00 0.00 73 1018.8
20260502121542 2 342 3.2 8.0 0.00 0.00 0.00 75 1018.9
20260502114529 1 288 0.0 4.8 0.00 0.00 0.00 78 1018.9
20260502113029 0 0 0.0 1.6 0.00 0.00 0.00 81 1018.7
20260502111526 0 0 0.0 0.0 0.00 0.00 0.00 82 1018.5
20260502110028 0 0 0.0 0.0 0.00 0.00 0.00 83 1018.5
20260502104541 0 0 0.0 0.0 0.00 0.00 0.00 81 1018.3
20260502103029 0 0 0.0 0.0 0.00 0.00 0.00 81 1018.2
20260502101530 0 0 0.0 1.6 0.00 0.00 0.00 80 1018.3
20260502091530 0 0 0.0 0.0 0.00 0.00 0.00 79 1018.0
20260502070028 2 0 0.0 0.0 0.00 0.00 0.00 70 1017.7
20260502064527 2 0 0.0 1.6 0.00 0.00 0.00 69 1017.8
20260502063029 2 0 0.0 3.2 0.00 0.00 0.00 67 1017.8
20260502061528 3 0 0.0 0.0 0.00 0.00 0.00 64 1017.8
20260502060028 3 0 0.0 1.6 0.00 0.00 0.00 63 1017.8
20260502054530 3 0 0.0 3.2 0.00 0.00 0.00 61 1017.8
20260502053027 3 0 0.0 4.8 0.00 0.00 0.00 60 1017.8
20260502051547 3 0 0.0 3.2 0.00 0.00 0.00 60 1017.6
20260502050026 3 0 0.0 3.2 0.00 0.00 0.00 59 1017.6
20260502044528 3 0 0.0 3.2 0.00 0.00 0.00 58 1017.6
20260502043028 3 306 0.0 4.8 0.00 0.00 0.00 58 1017.5
20260502041529 3 0 0.0 3.2 0.00 0.00 0.00 58 1017.3
20260502040027 4 0 1.6 6.4 0.00 0.00 0.00 56 1017.4
20260502034538 4 22 0.0 6.4 0.00 0.00 0.00 55 1017.4
20260502033038 4 0 0.0 8.0 0.00 0.00 0.00 54 1017.3
20260502031528 4 44 1.6 4.8 0.00 0.00 0.00 55 1017.2
20260502030029 4 5 1.6 8.0 0.00 0.00 0.00 53 1017.1
20260502024531 5 0 0.0 6.4 0.00 0.00 0.00 53 1017.2
20260502023029 5 347 1.6 6.4 0.00 0.00 0.00 53 1017.2
20260502021526 5 351 3.2 11.3 0.00 0.00 0.00 52 1017.1
20260502020028 5 0 0.0 8.0 0.00 0.00 0.00 56 1017.0
20260502014532 5 0 0.0 3.2 0.00 0.00 0.00 57 1016.9
20260502013028 5 5 0.0 3.2 0.00 0.00 0.00 56 1016.8
20260502011530 5 0 0.0 6.4 0.00 0.00 0.00 53 1016.6
20260502010027 5 360 1.6 6.4 0.00 0.00 0.00 52 1016.4
20260502004528 5 296 1.6 4.8 0.00 0.00 0.00 53 1016.4
20260502003027 5 11 0.0 8.0 0.00 0.00 0.00 51 1016.2
20260502001528 6 0 1.6 8.0 0.00 0.00 0.00 51 1016.1
20260502000029 6 0 1.6 6.4 0.00 0.00 0.00 49 1015.9
20260501234531 6 310 1.6 11.3 0.00 0.00 0.00 50 1015.7
20260501233028 6 25 3.2 14.5 0.00 0.00 0.00 49 1015.7
20260501231538 6 342 1.6 11.3 0.00 0.00 0.00 50 1015.6
20260501230026 6 58 3.2 17.7 0.00 0.00 0.00 48 1015.5
20260501224526 7 32 1.6 8.0 0.00 0.00 0.00 47 1015.4
20260501223028 7 311 1.6 9.7 0.00 0.00 0.00 46 1015.4
20260501221531 7 57 0.0 8.0 0.00 0.00 0.00 47 1015.3
20260501220028 7 333 1.6 12.9 0.00 0.00 0.00 46 1015.2
20260501214538 7 0 0.0 6.4 0.00 0.00 0.00 48 1015.2
20260501213028 7 323 3.2 8.0 0.00 0.00 0.00 48 1015.0
20260501211526 7 267 1.6 9.7 0.00 0.00 0.00 47 1014.9
20260501210028 7 0 0.0 6.4 0.00 0.00 0.00 47 1014.9
20260501204528 7 350 3.2 8.0 0.00 0.00 0.00 44 1015.0
20260501203027 7 244 1.6 6.4 0.00 0.00 0.00 45 1015.0
20260501201527 7 0 0.0 9.7 0.00 0.00 0.00 50 1015.0
20260501200030 7 12 1.6 8.0 0.00 0.00 0.00 50 1015.0
20260501194527 7 0 0.0 8.0 0.00 0.00 0.00 54 1015.0
20260501193033 7 21 1.6 6.4 0.00 0.00 0.00 51 1014.9
20260501191528 8 49 4.8 11.3 0.00 0.00 0.00 51 1014.8
20260501190028 7 325 1.6 4.8 0.00 0.00 0.00 49 1014.8
20260501184530 7 0 0.0 6.4 0.00 0.00 0.00 55 1014.8
20260501183028 7 340 1.6 4.8 0.00 0.00 0.00 53 1014.7
20260501181533 7 34 1.6 6.4 0.00 0.00 0.00 56 1014.8
20260501180035 6 30 1.6 8.0 0.00 0.00 0.00 55 1014.7
20260501174529 6 69 0.0 3.2 0.00 0.00 0.00 56 1014.9
20260501173036 6 18 4.8 8.0 0.00 0.00 0.00 54 1014.9